Wetbulb
67.87 66.94 62.17 60.63 51.77 51.19 47.90 52.00 55.76 51.84 50.74 52.67 53.90 52.40 49.66 50.16 49.70 47.88 59.04 62.29 69.01 68.02 69.89 72.76 74.49 74.32 73.91 73.52 73.22 73.02 72.80 72.36 71.13 70.82 70.26 69.19 68.28 67.48 67.03 66.71 65.84 65.30 65.38 65.97 66.50 67.09 69.46 69.45 68.35
63.49 61.64 59.64 59.72 49.51 44.86 47.59 54.05 53.85 51.00 53.32 54.09 54.11 53.26 51.38 50.86 56.23 57.64 58.07 61.88 68.70 68.92 69.47 71.00 74.47 74.39 74.27 73.80 73.62 73.25 73.05 72.85 71.73 71.20 70.81 69.73 68.63 68.16 67.92 67.81 67.42 67.20 66.71 66.48 66.61 66.63 68.11 69.45 69.14
64.54 65.14 57.55 51.94 48.70 46.59 48.30 54.41 55.62 53.43 54.28 53.55 52.22 54.62 54.98 53.24 57.16 59.22 60.66 61.96 64.32 67.06 67.95 69.63 74.37 74.30 74.32 73.84 73.62 73.70 73.50 72.78 71.53 70.93 70.11 69.96 69.38 69.01 68.59 68.48 68.51 68.35 68.07 67.37 67.25 67.17 66.68 68.18 69.25
62.62 61.17 57.78 48.11 46.65 51.28 51.65 54.74 54.31 52.53 53.46 54.33 53.40 52.10 56.12 59.37 57.96 60.54 62.08 61.85 60.56 65.76 68.99 73.09 74.17 74.09 72.93 71.54 71.70 72.65 72.16 72.33 71.32 70.19 69.90 68.79 68.33 69.37 69.41 68.23 68.28 68.26 68.46 68.34 67.53 67.30 67.14 66.95 67.93
61.98 56.94 48.63 47.01 49.60 54.08 55.57 57.11 55.19 52.19 52.12 52.60 53.01 52.43 53.40 58.64 61.06 60.94 60.52 60.13 58.75 61.80 66.24 68.44 71.42 70.99 70.32 68.96 69.37 69.85 69.41 68.46 67.87 68.24 68.26 67.99 68.04 68.48 68.11 67.99 67.91 67.98 68.08 68.07 68.32 67.50 67.45 67.32 68.03
54.94 53.99 45.75 46.21 49.19 53.87 55.20 56.43 56.32 54.21 53.55 52.07 52.02 53.80 53.64 58.34 59.06 59.17 59.99 57.99 60.34 61.66 62.76 65.36 70.22 70.20 70.17 70.00 69.56 69.38 68.24 67.19 66.75 66.61 66.51 66.73 67.06 67.18 67.44 67.25 67.50 67.56 67.43 67.59 68.06 67.88 68.35 67.84 67.78
52.59 49.36 47.41 48.86 50.38 51.65 55.32 57.65 55.03 55.30 52.38 51.81 53.92 51.83 54.22 56.91 58.47 58.76 58.66 58.32 58.77 59.59 59.62 61.79 64.20 67.44 70.38 69.86 69.28 67.62 66.34 65.46 65.16 65.05 65.00 65.34 65.53 65.82 66.20 66.37 66.55 66.59 66.64 66.72 67.55 67.64 68.09 68.04 67.67
56.09 51.04 48.66 50.14 48.91 49.96 55.10 56.25 56.78 55.01 53.66 56.74 56.74 51.49 51.81 56.50 59.08 58.46 57.53 57.62 57.54 57.72 57.94 58.85 60.70 63.05 63.03 62.90 67.70 66.89 66.10 66.32 66.18 65.70 65.34 65.13 64.96 64.87 65.15 65.32 65.61 66.18 66.73 66.84 67.08 67.40 67.54 67.65 67.65
60.10 48.98 47.35 49.40 50.24 51.34 52.90 51.94 55.98 57.78 55.71 56.50 55.38 54.88 58.37 59.56 58.71 56.67 54.80 55.01 55.53 57.62 56.71 56.51 59.16 61.86 61.71 61.97 63.84 67.67 67.51 67.29 66.70 65.68 65.80 64.68 60.86 60.41 62.22 63.72 65.72 66.45 66.47 66.82 66.99 66.90 67.05 67.12 67.19
54.34 47.80 50.06 54.22 54.21 52.83 52.59 51.97 54.27 54.93 54.48 55.89 55.06 57.53 59.50 59.15 57.11 55.04 54.51 55.27 55.01 56.98 57.79 59.06 60.58 61.25 61.49 64.01 61.44 62.31 63.05 63.18 62.57 62.33 60.77 59.85 59.59 59.82 62.57 63.65 64.95 65.22 65.78 66.47 66.54 66.88 66.69 66.18 61.65
54.44 49.95 53.40 54.36 55.79 55.71 52.83 51.70 53.53 53.77 51.52 54.64 53.08 54.83 56.40 56.73 55.13 54.66 54.51 54.11 55.82 55.61 58.81 59.56 60.75 61.38 61.00 60.86 61.00 60.27 60.04 60.55 60.78 60.94 60.17 60.19 60.47 59.66 60.40 59.84 59.94 59.40 63.47 62.39 63.58 63.59 62.99 62.25 60.98
52.17 54.62 54.98 55.27 56.55 55.82 52.63 54.60 53.04 54.03 53.07 55.69 55.70 56.57 55.55 55.07 54.30 54.51 53.98 55.06 56.28 55.99 58.47 60.15 61.28 60.88 61.54 61.04 59.93 59.84 60.70 60.87 60.22 60.82 60.75 60.18 59.84 59.79 59.60 58.71 59.31 59.28 59.94 60.71 61.35 61.54 61.46 61.52 61.19
53.60 54.26 56.12 56.93 56.50 53.44 54.70 53.78 53.50 53.01 56.39 56.19 55.87 56.50 55.27 54.51 54.58 54.51 55.81 56.92 56.37 56.14 57.88 59.68 60.19 60.75 61.19 60.66 59.95 60.98 61.11 60.80 60.44 60.77 60.72 60.78 59.65 58.69 59.22 59.50 59.58 59.25 58.88 60.07 60.38 61.12 61.58 61.07 60.70
55.73 55.36 55.29 56.27 55.35 53.88 53.74 53.88 52.87 54.24 56.87 54.94 54.80 53.15 53.35 54.21 55.58 55.55 56.52 55.87 55.84 55.88 57.91 59.00 59.79 60.46 60.43 60.78 60.32 61.28 61.59 61.54 61.01 61.12 61.58 62.74 60.49 59.03 59.53 59.77 60.33 59.79 58.74 59.64 60.55 61.41 61.42 61.76 59.24
53.57 50.98 53.01 54.07 53.90 52.44 55.03 50.38 50.89 54.72 55.37 54.50 54.41 53.57 54.00 54.25 56.00 55.59 56.71 56.94 56.65 55.93 58.75 58.58 58.99 59.65 60.09 60.77 61.15 62.05 61.43 62.47 61.05 60.99 61.44 63.03 61.24 59.95 59.90 60.05 60.90 60.50 59.49 59.57 60.18 60.72 61.96 62.10 61.20
48.83 49.74 46.37 51.26 52.98 53.71 52.21 46.46 51.87 54.94 53.99 53.91 54.65 54.66 54.94 54.34 54.67 56.47 58.06 57.81 56.68 56.88 57.81 58.67 60.76 59.92 61.24 60.10 61.04 62.01 62.03 61.46 61.32 61.44 61.71 62.50 61.92 61.28 60.01 59.81 60.15 61.12 59.23 59.01 59.13 59.63 59.67 59.95 60.42
46.64 42.31 45.18 48.30 53.40 52.76 51.21 48.35 52.83 54.99 53.79 53.35 53.76 53.93 54.65 53.98 54.87 57.45 59.49 58.58 57.08 57.02 56.63 58.25 59.17 59.46 60.72 60.79 62.37 62.45 62.41 61.60 62.40 62.31 61.50 61.53 61.69 62.66 60.96 60.16 59.49 60.69 59.22 59.38 59.46 58.99 59.40 58.87 59.19
41.60 42.95 46.53 46.75 50.94 51.43 50.43 49.21 52.15 54.21 53.74 53.16 53.59 54.23 54.71 54.67 55.19 58.04 58.86 59.35 57.52 57.37 57.26 59.01 59.17 60.92 60.61 61.99 62.20 62.15 61.87 62.29 62.54 61.75 61.20 61.60 60.44 63.03 61.55 60.93 60.54 60.59 59.01 58.93 58.50 58.61 59.52 59.24 58.81
46.74 46.40 45.95 49.19 52.03 50.22 50.26 50.01 52.49 54.13 53.49 52.64 52.78 53.22 53.19 54.03 56.29 57.79 59.09 59.36 57.66 57.56 57.24 58.67 59.46 60.19 60.58 60.95 60.27 59.89 59.43 60.38 60.76 61.44 61.43 61.54 61.81 62.21 61.07 60.33 61.59 60.04 59.00 59.53 58.80 58.44 57.79 57.68 59.27
46.95 44.95 44.99 49.05 51.91 51.42 50.48 49.60 52.50 53.38 52.64 52.69 52.94 52.62 52.93 54.32 55.92 57.17 57.98 58.00 56.99 56.60 56.74 58.83 59.21 60.10 61.86 61.32 61.88 61.28 61.67 60.89 60.63 61.02 61.09 61.99 62.00 62.05 61.25 60.07 58.93 60.03 58.98 58.54 59.01 58.56 58.12 58.85 60.10
47.26 44.96 45.26 46.29 50.21 51.62 49.28 46.78 50.16 53.41 53.36 54.19 53.97 53.00 54.92 54.72 54.65 55.99 57.34 56.84 56.87 57.45 56.54 58.45 59.62 60.84 62.02 61.24 61.26 60.99 60.95 60.29 60.26 60.91 59.93 61.29 62.17 62.29 62.67 61.26 60.46 60.94 59.56 58.59 58.36 58.54 58.48 56.89 58.17
43.87 49.82 49.08 48.37 46.66 40.55 48.93 37.61 45.82 49.05 49.94 52.31 52.69 50.95 53.62 54.51 55.85 56.29 56.91 56.49 56.57 57.27 56.69 59.64 60.51 61.04 62.06 61.33 60.35 58.53 57.92 57.31 59.02 61.16 59.35 60.29 61.77 62.45 62.59 61.99 61.45 60.50 60.29 59.26 59.58 60.14 58.95 59.07 58.45
46.33 50.78 49.28 48.85 46.03 43.21 44.59 39.13 42.83 48.22 48.02 49.52 49.73 51.35 53.89 55.16 55.59 56.07 56.76 58.04 58.29 57.85 57.82 59.53 60.11 60.45 61.23 62.35 60.70 59.28 58.23 60.33 59.75 59.20 58.61 59.33 60.49 61.79 62.49 62.24 61.53 60.95 59.82 59.87 60.49 59.73 60.08 59.19 58.77
51.29 49.02 48.23 48.04 46.73 39.68 42.92 42.27 41.35 44.95 48.87 50.09 52.33 54.59 55.26 54.99 55.59 56.58 58.00 58.50 57.74 57.04 57.64 59.71 59.50 59.21 60.81 61.83 60.25 59.71 59.13 58.21 57.72 58.88 58.41 59.48 60.08 60.49 61.68 63.20 61.92 61.88 60.93 62.34 60.43 60.08 60.31 59.78 59.67
48.89 44.41 38.26 35.02 36.68 34.02 45.16 41.75 42.09 48.57 50.80 51.18 51.56 53.98 54.46 55.62 55.44 56.06 56.95 56.76 55.37 55.39 57.40 58.54 59.03 58.43 60.01 59.70 60.60 60.55 59.44 58.93 57.94 57.86 58.97 59.05 59.20 60.25 60.40 61.26 62.02 61.61 62.32 62.44 61.79 60.83 60.73 60.60 59.89
43.88 44.80 39.10 31.10 32.66 36.59 44.93 39.59 44.61 51.79 52.51 52.26 55.78 55.07 55.20 54.61 55.41 55.47 56.44 55.82 55.30 55.87 57.59 57.51 58.92 57.78 59.82 59.78 60.46 61.41 60.37 59.72 59.87 60.14 59.89 59.90 59.70 60.24 61.06 61.01 61.71 62.28 62.88 62.82 61.72 60.87 60.80 60.83 59.20
44.84 43.18 46.68 40.79 42.02 37.84 41.06 45.55 49.94 50.68 50.17 51.78 54.52 54.88 53.48 54.05 54.51 54.96 55.67 55.29 55.08 55.38 56.39 56.44 58.23 57.55 59.13 59.34 59.97 61.19 60.70 59.91 59.53 60.14 59.94 60.43 60.14 61.89 61.91 61.20 61.57 62.29 62.85 62.20 61.54 60.71 60.27 60.50 60.73
46.51 48.85 42.46 39.17 33.15 30.57 38.82 41.40 42.54 47.02 47.51 50.68 52.95 53.39 53.38 53.86 54.42 54.79 55.85 54.92 55.11 55.70 55.86 57.22 58.14 57.43 59.04 59.57 59.13 60.95 61.05 61.49 60.67 59.53 59.60 59.25 60.11 60.61 61.35 61.23 60.93 61.89 61.71 61.82 61.57 62.53 61.97 61.51 60.97
44.36 44.29 45.05 42.99 39.93 33.59 32.58 37.36 47.81 48.25 48.87 51.79 52.72 54.15 53.51 53.20 54.02 54.74 55.43 55.17 55.69 55.78 56.13 57.12 56.79 57.51 57.94 58.24 57.83 60.45 60.78 60.81 61.33 60.40 61.60 61.02 60.65 60.74 61.29 61.55 61.58 61.58 61.70 61.29 61.36 62.59 61.21 60.03 59.53
47.28 45.45 44.68 41.15 37.88 39.70 38.28 39.25 50.41 50.27 52.60 53.98 54.08 54.96 53.63 53.48 53.55 54.26 55.28 53.96 55.44 55.05 55.84 56.95 56.58 57.35 57.39 58.42 58.03 59.54 60.38 61.00 60.63 60.80 60.91 60.93 61.21 61.02 61.35 61.85 61.94 62.12 61.59 60.98 61.65 62.13 61.34 59.96 59.21
MSLP
1011.06 1011.38 1011.58 1011.64 1012.07 1010.71 1009.50 1007.48 1005.37 1004.92 1004.62 1004.31 1004.29 1005.05 1006.41 1006.74 1007.51 1009.28 1009.28 1009.35 1010.16 1010.92 1011.30 1011.64 1011.93 1012.19 1012.44 1012.63 1012.94 1013.13 1013.47 1013.71 1013.80 1013.92 1014.11 1014.18 1014.36 1014.54 1014.67 1014.85 1014.96 1015.04 1015.18 1015.19 1015.17 1015.05 1015.12 1015.04 1014.93
1010.73 1011.12 1011.41 1010.99 1010.82 1010.41 1008.63 1006.42 1005.22 1004.40 1003.98 1003.88 1004.15 1004.81 1005.93 1007.18 1007.20 1008.37 1008.88 1009.02 1009.56 1010.29 1010.94 1011.23 1011.44 1011.71 1012.07 1012.40 1012.72 1012.99 1013.22 1013.35 1013.47 1013.64 1013.77 1013.88 1014.03 1014.20 1014.37 1014.52 1014.66 1014.86 1014.94 1014.96 1015.07 1014.96 1014.85 1014.86 1014.73
1010.73 1010.71 1011.40 1010.49 1009.83 1009.17 1007.72 1006.26 1004.77 1003.83 1003.48 1003.62 1004.18 1004.52 1005.72 1006.79 1007.31 1007.92 1008.20 1008.59 1009.39 1009.81 1010.30 1010.83 1011.22 1011.83 1012.18 1012.50 1012.71 1012.87 1012.96 1013.02 1013.15 1013.33 1013.41 1013.51 1013.70 1013.84 1013.95 1014.13 1014.26 1014.40 1014.60 1014.71 1014.76 1014.62 1014.71 1014.64 1014.61
1010.79 1010.57 1010.43 1009.75 1009.11 1007.33 1005.87 1004.51 1004.42 1003.76 1003.43 1003.49 1004.07 1005.01 1005.84 1006.14 1006.80 1007.46 1007.98 1008.27 1008.74 1009.68 1010.23 1010.83 1011.38 1011.67 1012.10 1012.20 1012.49 1012.60 1012.71 1012.79 1012.93 1013.00 1013.03 1013.21 1013.30 1013.40 1013.55 1013.77 1013.89 1014.09 1014.21 1014.20 1014.33 1014.36 1014.23 1014.34 1014.40
1010.63 1010.27 1010.18 1009.23 1007.91 1006.72 1005.15 1004.49 1003.99 1003.82 1003.63 1003.72 1003.85 1005.33 1006.26 1006.76 1006.86 1007.33 1007.86 1008.30 1009.05 1009.79 1010.15 1010.44 1010.90 1011.23 1011.49 1011.75 1011.97 1012.27 1012.55 1012.69 1012.87 1012.87 1012.81 1012.90 1013.05 1013.14 1013.25 1013.35 1013.47 1013.57 1013.60 1013.71 1013.85 1013.88 1013.95 1014.12 1014.31
1010.41 1009.84 1009.83 1009.10 1007.29 1005.74 1004.41 1004.03 1003.96 1003.70 1003.72 1004.20 1004.71 1005.79 1006.88 1006.90 1007.10 1007.56 1007.86 1008.48 1009.06 1009.81 1010.26 1010.38 1010.41 1010.44 1010.81 1011.15 1011.56 1011.93 1012.20 1012.43 1012.54 1012.58 1012.69 1012.83 1012.93 1012.92 1012.95 1013.03 1013.14 1013.19 1013.19 1013.19 1013.37 1013.61 1013.67 1013.95 1014.19
1010.25 1010.20 1009.46 1008.68 1007.25 1005.59 1004.97 1004.70 1004.26 1003.82 1003.45 1004.01 1004.39 1005.42 1007.04 1007.15 1007.06 1007.42 1007.90 1008.43 1008.74 1008.94 1009.68 1009.98 1010.38 1010.37 1010.62 1010.87 1011.34 1011.69 1011.84 1012.01 1012.14 1012.21 1012.35 1012.53 1012.62 1012.58 1012.58 1012.70 1012.78 1012.80 1012.80 1012.82 1012.86 1013.24 1013.33 1013.58 1013.93
1009.33 1009.82 1009.09 1008.18 1007.04 1005.38 1004.27 1003.19 1002.78 1003.10 1003.15 1003.26 1003.73 1005.07 1006.80 1006.91 1006.86 1007.33 1007.71 1008.05 1008.20 1008.58 1008.96 1009.67 1010.32 1010.66 1010.85 1011.06 1011.06 1011.27 1011.37 1011.62 1011.73 1011.93 1012.10 1012.25 1012.29 1012.25 1012.22 1012.24 1012.31 1012.28 1012.30 1012.32 1012.37 1012.71 1013.07 1013.31 1013.68
1008.78 1009.32 1008.42 1007.48 1006.53 1005.10 1004.18 1003.63 1003.14 1002.74 1002.87 1002.95 1003.32 1004.05 1004.98 1006.12 1006.60 1007.26 1007.95 1008.21 1008.33 1008.50 1009.07 1009.73 1010.02 1010.34 1010.60 1010.69 1010.93 1011.02 1010.95 1011.21 1011.45 1011.57 1011.64 1011.75 1012.04 1012.14 1012.10 1011.97 1011.77 1011.86 1011.86 1011.89 1012.03 1012.35 1012.77 1013.10 1013.38
1008.28 1008.27 1007.05 1006.40 1005.62 1004.76 1004.11 1003.55 1003.20 1003.00 1002.87 1002.99 1003.76 1004.52 1005.19 1005.83 1006.57 1007.22 1007.72 1007.96 1008.48 1008.96 1009.59 1009.45 1009.68 1010.18 1010.44 1010.61 1010.84 1011.01 1011.04 1010.96 1011.33 1011.35 1011.42 1011.47 1011.66 1011.67 1011.62 1011.50 1011.33 1011.41 1011.44 1011.48 1011.66 1012.09 1012.49 1012.71 1013.14
1007.24 1006.82 1006.02 1005.44 1004.78 1004.13 1003.74 1003.40 1003.02 1003.02 1003.10 1003.07 1003.81 1004.55 1005.13 1005.86 1006.59 1007.10 1007.26 1007.61 1008.23 1008.53 1009.01 1009.22 1009.50 1010.04 1010.58 1010.83 1010.98 1010.93 1010.86 1010.97 1011.08 1011.08 1011.17 1011.31 1011.36 1011.41 1011.38 1011.35 1011.32 1011.41 1011.25 1011.44 1011.51 1012.00 1012.16 1012.41 1012.79
1006.55 1005.71 1005.20 1004.38 1003.79 1003.57 1003.30 1003.07 1003.11 1002.78 1002.62 1002.63 1003.26 1004.15 1005.08 1005.75 1006.43 1006.81 1007.06 1007.76 1008.25 1008.67 1009.04 1009.12 1009.49 1010.19 1010.57 1010.69 1010.76 1010.83 1010.97 1010.93 1011.01 1010.89 1010.84 1011.08 1011.19 1011.16 1011.12 1011.23 1011.16 1011.21 1011.27 1011.40 1011.59 1011.83 1011.92 1012.21 1012.46
1005.47 1004.98 1004.29 1003.47 1003.02 1002.76 1002.78 1002.79 1002.70 1002.42 1002.29 1002.46 1003.04 1003.81 1004.67 1005.24 1005.86 1006.18 1006.76 1007.64 1008.08 1008.55 1008.87 1009.17 1009.57 1010.08 1010.37 1010.54 1010.53 1010.59 1010.70 1010.62 1010.56 1010.40 1010.38 1010.63 1010.86 1010.94 1010.90 1010.92 1010.90 1010.98 1010.99 1011.11 1011.52 1011.70 1011.92 1012.00 1012.09
1005.05 1004.33 1003.63 1003.14 1002.59 1002.22 1002.35 1002.31 1002.11 1001.83 1001.72 1002.26 1002.63 1003.35 1003.82 1004.47 1005.30 1005.99 1006.68 1007.53 1008.02 1008.28 1008.69 1009.10 1009.51 1009.85 1010.07 1010.18 1010.31 1010.42 1010.29 1010.24 1010.13 1010.08 1009.97 1009.93 1010.10 1010.61 1010.58 1010.63 1010.72 1010.76 1010.67 1010.77 1010.96 1011.36 1011.60 1011.81 1011.96
1004.83 1004.05 1003.37 1002.82 1002.35 1001.90 1001.89 1001.87 1001.61 1001.54 1001.57 1002.02 1002.38 1002.85 1003.34 1003.79 1004.25 1004.95 1005.82 1006.81 1007.41 1007.87 1008.35 1009.03 1009.33 1009.70 1010.04 1010.14 1010.20 1010.18 1010.04 1009.84 1009.97 1009.75 1009.62 1009.37 1009.71 1010.03 1010.23 1010.25 1010.31 1010.33 1010.28 1010.39 1010.64 1011.18 1011.49 1011.66 1011.85
1005.10 1004.40 1003.32 1002.60 1002.08 1001.47 1001.66 1001.20 1001.22 1001.18 1001.58 1001.88 1001.97 1002.19 1002.72 1003.12 1003.55 1004.38 1005.35 1006.26 1006.97 1007.65 1008.39 1008.88 1009.19 1009.59 1009.92 1009.93 1009.94 1009.90 1009.70 1009.57 1009.57 1009.43 1009.41 1009.24 1009.33 1009.49 1009.87 1009.95 1009.93 1009.79 1009.93 1010.17 1010.62 1011.14 1011.38 1011.60 1011.71
1004.93 1004.23 1003.20 1002.19 1001.58 1001.21 1000.94 1000.63 1000.39 1000.54 1001.14 1001.50 1001.71 1001.86 1002.20 1002.59 1003.43 1004.18 1005.06 1005.87 1006.63 1007.47 1008.24 1008.96 1009.27 1009.59 1009.82 1009.74 1009.76 1009.67 1009.50 1009.47 1009.27 1009.12 1009.17 1009.06 1009.04 1009.03 1009.39 1009.44 1009.52 1009.64 1009.84 1010.21 1010.59 1011.14 1011.34 1011.63 1011.72
1004.65 1003.93 1003.02 1001.96 1000.84 1000.77 1000.48 1000.22 1000.16 1000.23 1000.54 1000.92 1001.26 1001.21 1001.79 1002.39 1003.15 1003.98 1005.01 1005.73 1006.36 1007.19 1007.93 1008.69 1009.18 1009.55 1009.56 1009.66 1009.58 1009.38 1009.39 1009.37 1009.05 1009.09 1009.01 1008.85 1008.86 1008.77 1008.95 1008.98 1009.19 1009.48 1009.74 1010.27 1010.62 1011.00 1011.18 1011.44 1011.77
1004.12 1003.50 1002.63 1001.22 1000.54 1000.36 1000.39 1000.42 1000.06 999.99 1000.40 1000.51 1000.59 1001.01 1001.45 1002.10 1003.04 1003.95 1004.90 1005.68 1006.35 1007.07 1007.90 1008.75 1009.23 1009.45 1009.52 1009.71 1009.78 1009.52 1009.53 1009.48 1009.20 1009.00 1008.64 1008.52 1008.54 1008.61 1008.73 1008.75 1008.90 1009.19 1009.54 1010.02 1010.41 1010.86 1011.32 1011.71 1011.91
1003.20 1002.94 1001.98 1001.03 1000.33 1000.00 1000.79 1000.16 999.74 999.95 1000.03 999.51 999.74 1000.30 1001.03 1002.32 1003.34 1004.17 1004.98 1005.77 1006.39 1007.10 1007.80 1008.64 1009.07 1009.28 1009.40 1009.51 1009.53 1009.39 1009.29 1009.25 1009.05 1008.88 1008.66 1008.30 1008.22 1008.38 1008.45 1008.55 1008.64 1009.10 1009.46 1009.90 1010.30 1010.49 1011.28 1011.62 1011.85
1001.92 1001.95 1001.56 1001.27 1000.17 999.75 999.87 1000.04 999.60 999.21 999.11 999.02 998.90 999.44 1000.64 1001.52 1003.08 1004.15 1004.98 1005.75 1006.54 1007.22 1007.89 1008.42 1008.97 1009.01 1009.23 1009.23 1009.31 1009.18 1009.04 1009.14 1009.08 1008.83 1008.69 1008.38 1008.21 1008.15 1008.15 1008.43 1008.61 1008.91 1009.29 1009.92 1010.26 1010.51 1010.98 1011.84 1012.23
1001.01 1000.77 1001.02 1000.85 1000.66 1000.67 999.83 1000.24 999.98 999.54 999.23 998.77 998.59 999.48 1000.59 1001.68 1002.82 1003.93 1004.84 1005.80 1006.44 1007.17 1007.74 1008.32 1008.67 1008.89 1009.05 1009.01 1009.37 1009.31 1009.39 1009.47 1009.08 1008.87 1008.76 1008.43 1008.27 1008.20 1008.18 1008.39 1008.59 1008.81 1009.18 1009.75 1010.16 1010.48 1011.00 1011.50 1012.26
999.68 1000.04 1000.27 1000.43 1000.72 1000.79 1000.43 1000.77 999.83 999.49 999.34 998.77 999.11 999.22 1000.62 1001.37 1002.46 1003.80 1004.80 1005.54 1006.28 1006.92 1007.70 1008.24 1008.57 1008.77 1008.79 1008.89 1009.09 1009.23 1009.25 1009.21 1009.04 1008.90 1008.82 1008.66 1008.44 1008.23 1008.09 1008.24 1008.51 1008.91 1009.25 1009.64 1009.99 1010.50 1010.87 1011.31 1011.83
999.11 999.49 999.83 1000.27 1000.87 1000.95 1000.85 1000.76 999.91 999.62 998.95 998.60 998.87 999.55 1000.56 1001.72 1002.82 1003.92 1004.76 1005.47 1006.25 1006.93 1007.61 1008.16 1008.55 1008.72 1008.62 1008.79 1009.08 1009.19 1009.24 1009.14 1009.24 1009.17 1009.10 1008.93 1008.62 1008.41 1008.26 1008.34 1008.56 1008.93 1009.21 1009.62 1009.94 1010.42 1010.84 1011.28 1011.67
998.28 999.02 1000.05 1000.69 1000.73 1000.77 1000.55 1000.27 999.42 998.48 998.23 998.36 999.06 999.91 1000.83 1001.83 1002.93 1003.93 1004.80 1005.65 1006.34 1007.11 1007.58 1008.06 1008.44 1008.66 1008.67 1008.90 1009.22 1009.25 1009.32 1009.24 1009.34 1009.38 1009.28 1009.05 1008.80 1008.70 1008.56 1008.47 1008.55 1008.82 1009.12 1009.54 1010.03 1010.47 1010.94 1011.34 1011.85
997.08 998.01 999.08 1000.18 1000.74 1000.86 1000.22 999.73 998.23 997.45 997.42 998.01 998.72 999.70 1000.83 1001.98 1002.87 1003.77 1004.64 1005.49 1006.25 1006.95 1007.50 1007.79 1008.30 1008.58 1008.65 1009.00 1009.26 1009.27 1009.31 1009.41 1009.41 1009.36 1009.29 1009.31 1009.16 1008.84 1008.77 1008.65 1008.57 1008.87 1009.19 1009.59 1010.14 1010.61 1010.98 1011.50 1011.95
995.88 996.29 997.54 999.45 1000.07 1000.72 1000.13 999.01 997.82 997.55 997.91 998.50 999.17 1000.24 1001.33 1002.15 1002.97 1003.72 1004.61 1005.30 1006.08 1006.79 1007.33 1007.64 1008.16 1008.36 1008.70 1008.89 1009.16 1009.29 1009.38 1009.35 1009.35 1009.36 1009.36 1009.26 1009.22 1009.13 1009.00 1008.87 1008.77 1009.09 1009.36 1009.74 1010.22 1010.78 1011.33 1011.93 1012.33
994.31 995.26 996.96 998.44 1000.16 1000.62 1000.06 999.12 998.31 997.97 998.05 998.48 999.41 1000.39 1001.49 1002.24 1003.02 1003.62 1004.40 1005.11 1005.83 1006.50 1006.92 1007.43 1007.81 1008.21 1008.54 1008.72 1008.92 1009.20 1009.32 1009.25 1009.30 1009.52 1009.69 1009.69 1009.60 1009.42 1009.24 1009.37 1009.29 1009.42 1009.77 1010.06 1010.51 1011.09 1011.72 1012.16 1012.76
993.41 994.41 995.69 997.48 999.04 999.91 1000.09 999.04 997.11 996.97 997.46 998.61 999.41 1000.11 1001.08 1001.98 1002.77 1003.45 1004.20 1004.86 1005.60 1006.25 1006.74 1007.32 1007.69 1008.09 1008.44 1008.70 1008.85 1009.24 1009.26 1009.27 1009.31 1009.58 1009.83 1009.94 1009.84 1009.77 1009.69 1009.68 1009.82 1009.92 1010.12 1010.45 1010.91 1011.48 1012.07 1012.51 1013.03
992.62 993.51 995.03 996.74 998.36 998.91 999.43 998.61 996.49 996.72 997.18 997.92 998.98 999.82 1000.68 1001.61 1002.42 1003.21 1004.01 1004.73 1005.51 1006.15 1006.77 1007.21 1007.55 1008.01 1008.23 1008.55 1008.82 1009.15 1009.23 1009.38 1009.55 1009.78 1010.05 1010.23 1010.04 1010.11 1010.05 1010.07 1010.10 1010.38 1010.44 1010.74 1011.16 1011.69 1012.42 1012.82 1013.38
Wind_Speed
6 5 2 2 2 1 6 11 6 9 4 4 7 7 8 6 5 5 5 12 16 13 12 15 17 17 16 15 13 12 12 12 12 12 11 10 10 9 7 6 5 5 6 7 8 9 8 9 7
5 6 3 4 3 2 7 8 9 3 7 7 8 6 9 4 6 9 7 10 15 15 12 13 19 17 16 14 13 12 12 13 13 12 11 11 12 11 11 9 8 8 8 8 10 10 10 8 8
3 5 0 4 4 8 5 3 14 8 6 5 5 6 6 9 9 8 8 11 15 12 13 11 16 12 11 10 10 11 12 12 12 11 11 11 12 13 13 12 12 11 11 10 11 11 11 10 8
2 3 4 1 12 16 4 7 4 1 2 6 6 7 5 5 6 10 10 10 9 12 11 12 12 10 9 8 7 6 6 8 9 11 9 10 11 11 11 13 13 14 14 13 12 13 12 10 8
3 3 4 5 13 16 7 7 7 7 7 4 7 6 6 3 11 10 9 7 13 9 10 11 15 14 12 11 9 7 5 3 1 5 8 10 11 12 12 14 15 16 15 14 15 13 13 9 10
3 1 2 7 14 11 3 6 6 5 6 3 7 7 5 7 9 9 9 8 10 12 8 10 15 15 14 12 10 10 8 7 7 7 7 8 10 12 13 14 15 16 17 17 16 16 13 11 8
4 2 8 13 17 14 0 11 4 13 5 3 4 3 5 7 9 9 9 9 9 9 9 8 8 10 11 12 10 10 11 11 9 8 8 9 11 13 15 16 17 18 19 19 17 17 15 12 9
4 2 11 13 12 17 4 3 7 6 6 9 9 5 6 8 11 10 9 9 9 8 8 8 6 5 5 5 13 14 13 12 11 9 8 8 7 10 13 15 15 17 18 19 19 18 16 13 9
13 6 12 18 16 13 8 6 5 7 2 3 10 6 11 13 10 8 6 6 6 5 6 7 7 7 5 3 7 12 16 13 12 8 9 8 4 6 9 9 14 17 17 18 18 16 17 14 11
9 6 19 16 16 14 9 7 6 7 9 4 8 10 14 14 10 9 7 8 5 8 7 7 7 7 5 2 4 5 5 5 5 5 4 4 5 4 6 9 13 11 12 15 17 16 17 15 4
14 16 16 17 17 16 8 9 8 10 4 1 11 11 10 6 8 9 8 6 9 7 6 7 7 7 4 1 2 3 1 1 2 4 4 4 3 4 3 3 3 3 8 3 7 7 6 6 5
17 21 20 21 19 15 6 8 15 7 5 6 8 14 8 9 10 10 7 8 8 8 7 8 8 5 4 3 1 3 1 2 3 4 5 4 3 4 4 2 4 2 3 4 4 3 5 6 7
21 20 22 20 18 6 7 13 17 6 5 5 8 13 12 11 10 7 7 10 9 9 7 8 6 5 4 4 3 3 3 3 4 4 4 5 4 4 3 3 3 3 3 4 4 5 5 6 7
19 19 20 19 15 7 13 17 6 8 4 7 7 10 11 11 11 8 8 8 9 8 8 6 5 6 5 5 4 4 3 5 4 4 5 6 5 4 4 3 4 4 4 4 5 6 6 6 4
18 21 22 19 12 12 14 10 8 9 8 9 9 9 9 12 12 13 12 10 10 7 9 6 2 1 2 1 4 4 4 4 4 4 6 4 5 6 4 4 3 4 4 6 5 5 5 4 3
18 19 19 10 12 18 10 14 11 8 7 9 11 9 12 12 12 11 12 11 10 9 8 6 3 3 4 2 3 3 3 2 3 4 3 3 3 5 5 4 4 4 4 4 4 3 4 4 4
10 13 16 14 18 21 12 18 14 9 8 10 9 10 11 9 7 12 13 12 10 9 8 5 4 3 1 4 3 4 4 2 3 3 3 4 4 5 5 4 3 4 4 3 3 1 3 2 3
12 10 11 17 21 18 16 11 6 11 11 12 10 9 9 10 13 16 15 13 11 10 9 6 3 4 2 2 3 3 1 2 3 3 3 3 4 5 4 3 4 4 4 3 3 4 3 3 3
16 15 19 22 22 19 8 6 8 7 9 8 9 7 9 10 10 15 13 12 10 9 9 6 4 3 2 1 2 2 1 1 1 2 4 4 5 5 4 4 5 4 5 6 6 3 4 2 3
18 20 23 22 17 8 18 22 8 9 10 9 11 10 6 11 14 14 13 8 9 9 8 6 4 3 2 1 1 1 1 2 2 2 3 5 4 4 4 4 4 5 4 5 5 5 3 2 4
19 21 21 18 21 14 4 5 6 8 5 9 10 8 15 21 17 13 13 11 9 9 8 6 6 3 3 1 1 3 2 2 2 2 2 4 4 5 4 4 5 5 5 5 5 5 6 4 2
19 18 21 22 17 7 2 6 3 5 10 9 7 9 14 15 15 12 12 9 9 8 8 8 6 3 4 4 2 3 0 2 2 1 2 4 2 2 2 2 4 5 4 6 5 5 4 5 8
21 16 18 20 16 5 6 3 6 3 9 8 2 4 12 17 18 15 13 11 9 8 8 7 7 4 4 4 3 2 2 2 1 2 3 3 2 1 3 4 4 6 4 5 7 6 6 3 4
22 13 17 18 14 11 7 8 7 6 6 1 5 11 14 13 14 14 12 11 8 8 8 7 7 4 1 4 6 5 4 3 3 3 3 3 2 1 1 3 5 4 6 6 6 6 6 5 5
17 14 10 5 5 6 7 4 9 8 7 8 10 11 10 14 16 14 14 10 9 9 8 7 8 5 2 5 7 6 4 3 4 3 2 4 3 3 2 2 5 3 5 6 6 6 6 6 6
20 17 10 8 5 5 7 6 10 12 8 10 14 13 13 14 14 13 13 10 10 9 9 8 8 6 4 7 6 5 3 2 2 3 2 2 2 2 3 3 5 5 6 6 6 4 5 6 5
14 19 14 5 2 4 5 5 7 6 8 9 12 13 13 13 13 13 11 12 9 9 9 7 8 6 7 7 6 6 4 4 2 3 4 4 3 2 5 5 6 6 6 8 8 5 5 7 6
27 7 8 1 8 6 5 4 7 9 10 9 11 11 9 10 11 11 11 11 8 9 7 7 8 8 8 7 6 6 5 4 3 4 4 5 4 3 6 6 6 7 6 7 7 7 7 11 7
14 17 7 8 7 7 1 8 9 14 9 14 11 12 14 12 12 11 10 10 10 8 8 7 7 8 7 7 5 7 4 4 4 4 4 4 4 5 6 6 6 7 7 6 8 10 10 11 11
18 14 9 9 5 5 6 7 7 9 11 15 13 14 12 11 10 9 11 10 11 9 8 8 6 7 7 7 6 6 5 6 5 5 5 4 4 4 5 5 7 6 6 6 11 11 10 10 11
Wind_Direction
171 185 198 279 24 158 262 280 342 62 65 95 89 86 89 104 97 185 202 113 128 145 164 171 173 176 182 188 192 195 202 208 213 218 222 220 228 242 249 256 255 253 258 264 267 264 267 266 266
195 194 251 274 170 302 278 310 267 107 153 127 120 125 91 66 93 126 110 142 150 153 158 173 179 182 187 191 196 202 209 214 217 224 227 222 229 236 252 255 263 256 255 255 254 257 261 265 265
308 271 332 200 209 233 246 230 315 1 117 131 100 87 109 139 123 141 161 134 141 165 169 170 175 177 186 198 206 212 219 221 218 224 225 228 231 237 242 250 260 262 256 255 255 249 249 254 271
217 286 291 225 258 271 233 295 8 22 12 161 114 114 57 151 119 148 159 152 122 108 123 140 151 154 160 176 200 219 250 234 228 236 233 235 244 245 246 252 255 251 258 254 250 255 244 250 258
238 264 229 261 266 264 266 347 15 353 320 113 143 103 100 58 113 129 132 121 113 116 131 139 148 155 166 177 181 188 162 148 218 259 257 255 255 253 252 254 250 256 253 251 253 244 245 248 257
287 157 299 275 281 302 260 69 294 331 321 35 47 110 170 147 117 145 134 122 115 137 150 154 163 164 176 172 180 183 182 192 210 229 246 256 259 257 255 257 256 254 255 253 246 243 235 225 241
210 289 264 279 288 309 100 76 313 282 232 89 116 81 158 151 164 149 131 127 129 145 154 160 176 183 172 180 177 188 195 205 213 227 241 255 264 265 264 260 258 255 252 253 246 237 227 217 226
241 231 280 278 284 286 292 204 186 255 137 175 138 145 188 208 153 133 134 148 174 175 173 177 143 174 185 195 189 200 205 211 212 217 218 232 251 273 270 266 263 258 255 246 244 231 224 210 213
250 255 262 269 277 284 328 15 297 344 180 238 175 129 147 154 137 137 158 180 196 192 119 132 120 95 83 75 205 210 217 218 221 215 229 226 212 239 259 267 260 252 250 244 244 226 223 215 214
228 230 248 260 273 292 301 335 334 337 308 281 92 97 142 153 156 161 174 193 158 124 129 120 114 99 81 349 12 199 245 199 203 205 200 177 211 236 260 261 273 280 272 244 236 216 215 212 189
242 240 252 261 262 275 290 318 299 292 289 73 165 165 156 147 161 186 198 183 155 135 118 121 108 108 119 297 15 350 348 148 178 218 236 219 222 252 255 269 273 288 251 255 215 212 207 181 183
244 245 249 254 258 250 278 290 285 269 235 89 128 163 154 168 184 190 196 156 117 111 116 103 105 123 124 125 335 282 311 239 241 217 226 203 220 240 253 233 251 245 232 210 193 184 173 197 201
241 246 255 263 269 227 261 263 265 258 293 120 132 147 175 184 196 196 155 126 121 110 115 113 116 129 165 190 222 237 250 268 268 260 252 205 213 232 227 244 245 254 222 191 188 183 189 208 216
253 254 258 261 269 251 254 260 254 243 265 180 191 179 189 176 178 155 144 142 122 129 119 122 125 173 197 208 217 238 237 247 252 259 251 226 198 212 217 234 235 240 225 205 179 190 203 216 210
268 273 275 269 265 263 252 252 257 232 225 228 222 199 192 190 175 176 163 145 138 137 124 130 167 228 232 184 258 257 249 244 249 256 274 251 173 206 222 236 238 228 213 194 169 182 201 200 232
282 276 260 258 269 265 228 252 237 239 223 263 212 195 200 209 190 155 149 134 129 116 122 127 104 57 84 1 305 296 268 263 261 253 268 270 252 201 222 235 244 223 182 173 160 182 189 208 216
260 256 257 263 254 263 241 254 212 209 233 259 221 222 221 199 143 142 141 136 132 129 120 112 99 21 72 344 292 284 259 288 276 281 277 275 268 242 213 212 218 198 158 159 144 152 162 184 174
235 259 250 256 254 258 259 241 203 210 211 235 245 241 212 166 161 144 141 138 134 130 125 127 164 137 36 350 311 294 321 292 292 281 268 243 250 277 241 198 207 185 157 151 138 158 194 148 150
237 245 247 251 247 252 321 285 216 224 253 238 257 250 224 168 141 136 139 135 128 125 124 155 154 148 64 327 333 342 216 225 326 327 321 265 232 250 244 229 189 173 165 171 168 156 155 85 143
226 248 260 272 275 124 229 250 236 223 235 226 230 243 214 126 138 140 136 131 133 135 141 157 149 145 142 153 264 252 276 266 218 296 327 322 198 225 220 163 182 162 157 150 156 148 117 111 152
232 229 250 259 277 284 242 234 236 253 265 277 241 187 145 151 149 149 143 140 135 135 143 155 151 147 131 56 7 342 358 345 345 328 339 332 201 224 202 172 172 177 148 152 160 148 131 127 107
240 228 240 254 265 254 264 269 289 289 293 298 252 166 154 144 144 147 143 135 138 146 152 137 138 161 151 100 103 59 18 293 265 345 339 325 84 46 160 156 175 145 138 149 153 146 138 141 150
239 225 233 242 253 252 292 331 260 259 290 284 152 204 151 148 149 147 143 139 146 139 144 143 144 178 182 126 131 92 358 295 337 0 6 335 24 250 232 161 166 137 136 144 148 150 148 131 135
230 229 233 243 245 246 226 208 256 232 231 139 128 119 137 128 134 132 140 141 137 137 140 143 149 169 270 111 71 60 42 40 57 36 12 348 0 2 58 165 150 136 151 152 150 142 144 133 121
219 218 237 265 223 202 216 272 237 258 202 166 139 132 132 134 137 141 145 144 136 145 151 157 152 162 169 99 86 74 82 71 68 47 17 6 360 46 35 105 140 154 145 141 136 139 141 140 140
224 206 210 212 178 226 245 231 254 221 154 131 124 138 129 131 142 145 145 140 146 148 158 169 157 158 148 110 110 105 112 89 60 8 58 52 25 46 48 76 119 145 134 125 119 126 132 131 116
222 211 200 203 205 194 214 251 338 111 126 120 118 123 135 142 145 146 141 143 150 148 168 167 155 159 136 132 128 115 113 94 93 29 41 60 51 44 62 69 88 92 108 121 129 127 103 102 105
214 184 188 183 192 246 282 283 226 157 164 139 127 138 134 140 140 145 144 148 152 154 163 151 148 150 157 154 145 140 151 163 161 92 72 76 44 66 66 76 79 93 104 109 112 104 106 105 102
217 217 182 146 151 172 216 276 230 175 164 149 146 146 146 152 151 148 146 147 148 148 148 149 147 144 139 125 133 139 164 152 117 104 112 88 80 70 70 82 89 87 92 105 107 118 112 111 108
215 205 167 179 216 174 168 257 161 153 146 143 150 148 149 148 148 145 144 143 148 153 153 156 167 149 154 152 132 132 124 109 108 109 120 117 114 93 94 84 96 95 95 100 116 129 125 118 112